Weather Service Report


702 
ASUS41 KAKQ 291615
RWRAKQ

REGIONAL WEATHER ROUNDUP
NATIONAL WEATHER SERVICE WAKEFIELD VA
1200 PM EDT WED JUL 29 2015

Note: "fair" indicates few or no clouds below 12,000 feet with no
significant weather and/or obstructions to visibility. * = Denotes
station may not report precipitation (e.g., rain,snow,etc.),
thunder or fog.

VAZ042-051-052>054-056-291700-
NORTHERN VIRGINIA
  
CITY           SKY/WX    TMP DP  RH WIND       PRES   REMARKS
WASH NATIONAL  PTSUNNY   87  75  67 S9        30.01S HX  96           
DULLES         PTSUNNY   83  73  72 S6        30.02S                  
FORT BELVOIR   SUNNY     85  74  71 VRB3      30.01S                  
QUANTICO       PTSUNNY   83  74  74 S8        30.02R                  
FREDERICKSBRG* MOSUNNY   85  78  80 S6        30.01S HX  97           
STAFFORD*      CLOUDY    83  74  74 SE6       30.06S                  
WARRENTON      CLOUDY    84  77  79 SW3       30.02S                  
CULPEPER*      PTSUNNY   81  74  79 S3        30.02F                  
MANASSAS*      PTSUNNY   84  77  79 SW6       30.01F                  
LEESBURG*      PTSUNNY   86  77  74 S7        30.03S HX  97           
WINCHESTER     PTSUNNY   84  72  65 CALM      30.03S                  
FRONT ROYAL*   CLOUDY    81  72  74 CALM      30.01F                  
LURAY*         PTSUNNY   86  72  62 SW7       30.02S                  
$$

VAZ048-049-060>072-079>083-291700-
CENTRAL AND SOUTH CENTRAL VIRGINIA
  
CITY           SKY/WX    TMP DP  RH WIND       PRES   REMARKS
RICHMOND       CLOUDY    81  72  74 SW13      30.04S                  
CHESTERFIELD*  CLOUDY    79  64  61 S3        30.06R                  
PETERSBURG*    CLOUDY    80  80 100 SW5       30.06R                  
HANOVER        CLOUDY    80  74  81 S7        30.05S                  
TAPPAHANNOCK*  PTSUNNY   84  71  65 S9        30.05R                  
QUINTON*       FAIR      82  74  75 SW8       30.04S                  
CHARLOTTSVILLE CLOUDY    81  73  76 S7        30.03S                  
GORDONSVILLE*  CLOUDY    81  73  78 S7        30.02S                  
ORANGE*        PTSUNNY   82  73  74 S3        30.04S                  
LOUISA*        PTSUNNY   81  73  78 S6        30.03S                  
BUMPASS*       CLOUDY    80  74  80 CALM      30.04R                  
FARMVILLE*     CLOUDY    83  73  72 S5        30.03S                  
CREWE*         CLOUDY   N/A N/A N/A S6        30.05R                  
FORT PICKETT*  CLOUDY    78  73  85 S12       30.06S                  
CHASE CITY*    CLOUDY    83  76  79 SW3       30.05S                  
CLARKSVILLE*   CLOUDY    79  73  83 S5        30.04F                  
SOUTH HILL*    CLOUDY    77  74  88 S5        30.12S                  
LAWRENCEVILLE* CLOUDY    73  72  94 SW3       30.06S                  
EMPORIA*       CLOUDY    82  72  69 W3        30.06R                  
$$

VAZ088>098-291700-
SOUTHEAST VIRGINIA
  
CITY           SKY/WX    TMP DP  RH WIND       PRES   REMARKS
NORFOLK        PTSUNNY   87  68  52 SE7       30.03F                  
VIRGINIA BEACH MOSUNNY   89  71  55 SE12      30.02F HX  95           
NORFOLK NAVAL  MOSUNNY   86  68  54 CALM      30.04F                  
WEST POINT*    MOSUNNY   88  71  56 SW7       30.05S                  
SALUDA*        PTSUNNY   84  74  72 SW7       30.03S                  
NEWPORT NEWS   SUNNY     86  70  58 S6        30.03F                  
LANGLEY AFB    SUNNY     86  71  59 SE5       30.03F                  
FORT EUSTIS    MOSUNNY   86  68  55 VRB5      30.02F                  
WILLIAMSBURG*  SUNNY     90  73  58 S5        30.04F HX  98           
HR EXEC AP*    FAIR      86  72  62 S6        30.05F                  
FRANKLIN*      PTSUNNY   85  71  61 S3        30.04S                  
WAKEFIELD      MOSUNNY  N/A N/A N/A MISG      30.04S                  
$$

VAZ020-022-025-037-045-291700-
WEST CENTRAL AND SOUTHWEST VIRGINIA
  
CITY           SKY/WX    TMP DP  RH WIND       PRES   REMARKS
STAUNTON*      MOSUNNY   84  72  65 CALM      30.06F                  
WAYNESBORO*    PTSUNNY   78  72  82 SE5       30.07S                  
HOT SPRINGS VA CLOUDY    74  69  84 NW5       30.18R                  
LYNCHBURG      CLOUDY    79  73  82 S7        30.06F                  
DANVILLE       PTSUNNY   82  73  74 W3        30.05S                  
SOUTH BOSTON*  PTSUNNY   82  73  75 SE5       30.04F                  
MARTINSVILLE   CLOUDY    82  74  76 CALM      30.08S                  
ROANOKE        CLOUDY    81  70  69 VRB5      30.08S                  
BLACKSBURG     CLOUDY    77  72  85 NW5       30.15S                  
DUBLIN*          N/A     77  73  87 CALM      30.13S                  
MARION*        DRIZZLE   74  70  87 NE5       30.16S                  
HILLSVILLE*    CLOUDY    75  70  82 CALM      30.14S                  
RICHLANDS*     FAIR      77  71  81 CALM      30.13F                  
WISE*          MOSUNNY   82  68  61 NW5       30.15S                  
ABINGDON*      MOSUNNY   83  71  65 W3        30.10F                  
$$

MDZ021>025-VAZ099-100-291700-
SOUTHERN MARYLAND AND THE DELMARVA PENINSULA
  
CITY           SKY/WX    TMP DP  RH WIND       PRES   REMARKS
PATUXENT RIVER PTSUNNY   85  73  67 VRB6      30.02S                  
BAY BRIDGE APT   N/A     86  70  58 SE7       30.01S                  
LEONARDTOWN    CLOUDY    82  70  65 S3        30.04S                  
DOVER          MOSUNNY   88  77  69 SW8       30.00F HX 100           
GEORGETOWN     MOSUNNY   87  73  62 S7        30.02F                  
EASTON         MOSUNNY   88  75  66 SW12      30.05S HX  97           
CAMBRIDGE      MOSUNNY   86  72  62 S7        30.02S                  
SALISBURY      MOSUNNY   85  73  67 VRB6      30.02S                  
OCEAN CITY     SUNNY     85  76  74 VRB6      30.02F                  
WALLOPS ISLAND PTSUNNY   83  76  79 S9        30.04S                  
ACCOMACK*      PTSUNNY   82  75  78 S7        30.04S                  
$$

NCZ012>017-030>032-291700-
NORTH CENTRAL AND EASTERN NORTH CAROLINA
  
CITY           SKY/WX    TMP DP  RH WIND       PRES   REMARKS
ROANOKE RAPIDS FAIR      81  70  69 W3        30.05S                  
RALEIGH        PTSUNNY   83  69  62 SE3       30.05F                  
ELIZABETH CITY SUNNY     86  72  62 SE8       30.04S                  
AHOSKIE*       MOSUNNY   83  69  62 CALM      30.04S                  
EDENTON*         N/A     84  71  66 CALM      30.04S                  
CURRITUCK*     MOSUNNY   87  68  53 E7        30.05S                  
KILL DEVIL HLS SUNNY     89  70  54 E9        30.04S                  
MANTEO         SUNNY     84  71  64 SE10      30.05S                  
CAPE HATTERAS  PTSUNNY   88  70  55 SE13      30.02F                  
TARBORO*         N/A     86  70  59 CALM      30.04F                  
GOLDSBORO      MOSUNNY   86  71  61 VRB1      30.01S                  
WASHINGTON     SUNNY     86  69  57 E9        30.03F                  
GREENVILLE     PTSUNNY   88  72  58 SE7       30.05S                  
NEW BERN       SUNNY     88  70  55 NE7       30.03F                  
WILMINGTON     SUNNY     86  71  60 NE9       30.01S                  
$$

VAZ048-291700-
ELSEWHERE
  
CITY           SKY/WX    TMP DP  RH WIND       PRES   REMARKS
HARRISBURG PA  PTSUNNY   87  72  60 SE7       30.00F                  
BALTIMORE      PTSUNNY   87  73  62 S6        30.00F                  
ANNAPOLIS      LGT RAIN  81  73  76 SE9       30.01S                  
ANDREWS AFB    PTSUNNY   87  73  62 SW8       30.01S                  
PHILADELPHIA   PTSUNNY   89  71  55 SW7       30.00F HX  95           
HENDERSON NC   CLOUDY    79  70  74 SE3       30.06F                  
GREENSBORO     CLOUDY    82  72  71 VRB3      30.06S                  
ROCKY MOUNT    PTSUNNY   87  71  58 VRB3      30.04F                  
$$

VAZ100-291700-
MARINE
  
STATION/POSITION TIME  TEMP    WIND        PRES    WAVE   SWELL
                       AIR SEA DIR/SP/G            HT/PER HT/PER
                 (UTC) (F)     (DEG/KT/KT) (MB)    (FT/S) (FT/S)
BRANDYWINE LGT   1500   78     140/  3/  3 1016.9F
CAPE MAY NJ      1500   82 79  250/  3/  3 1016.4F
LEWES DE         1500   81 74   70/  5/  6 1016.5S
15NM E FENWICK I 1550   79 80  190/  6/  8 1017.0F   2/ 7   2/ 7
OCEAN-CITY-INLET 1500   80 74  170/  6/  8 1016.1R
WACHAPREAGUE VA  1518   83 84  170/  4/  7 1017.2S
GOOSES REEF MD   1600   83 82  190/  6/  8 1017.5R
COVE POINT MD    1500   83     230/  7/  9 1017.1R
SOLOMONS ISLAND  1500      83                N/A
BISHOPS HEAD MD  1500   81 83  200/  8/ 11 1015.9S
POTOMAC MD       1600   83 83  220/  4/  6 1015.8R   1
CAMBRIDGE MD     1500   83 83  160/  6/  8 1015.7S
LEWISETTA VA     1500   82 84  250/  9/ 11 1016.2S
RAPPAHANNOCK LGT 1500          190/  9/ 11 1017.7R
STINGRAY PT      1600   83 84  210/  4/  4 1017.1S   0
YORK RVR RNG VA  1500   82     210/  6/  8 1016.7R
YORKTOWN VA      1500   83 83  190/  6/  9 1016.8S
JAMESTOWN VA     1600   84 86   CALM  /  4   N/A
DOMINION TERM VA 1500   83     220/  3/  4 1017.2R
KIPTOPEKE VA     1500      81  190/  4/  5   N/A
CHES BAY BRIDGE  1500   81 81   20/  2/  2 1016.8S
CAPE HENRY VA    1500   80     100/  8/ 10   N/A
CHESAPEAKE LGHT  1500   80     180/  6/  7 1018.3R
WILLOUBY STN VA  1500   81     280/  6/  7 1018.2S
CAPE HENRY BUOY  1528      82                N/A     2/11
1ST LANDING BUOY 1600      82              1016.8F   1/ 4
CAPE CHARLES BUO 1526      81                N/A     2/11   2/11
OFFSHORE WE BUOY 1511      81                N/A     2/11   2/11
64NM E OF VA BCH 1550   81 82  160/  4/  6 1017.3F   2/ 6   2/ 6
DUCK PIER NC     1500   81 65  130/  7/  8 1016.6R
44100 DUCK FRF   1524      81                N/A     2/ 9
44056 DUCK FRF   1511      79                N/A     2/ 9
OREGON INLET NC  1500   83 82   90/  6/ 10 1017.4R
HATTERAS NC      1500   83 82   80/  7/ 11 1016.7R
CAPE LOOKOUT NC  1600   82      70/ 12/ 14 1015.9F
$$

Return to Home page


Western Regional Climate Center, wrcc@dri.edu